Cloud_Cover
65 21 0 0 4 4 1 0 3 0 0 0 0 0 4 4 5 0 0 0 12 0 16 0 0 0 0 5 4 0 4 8 2 1 2 5 16 64 100 100 90 6 24
67 22 0 0 0 14 0 0 1 0 0 0 0 0 0 0 0 10 0 0 2 8 0 0 0 0 10 4 3 0 0 0 0 0 0 5 4 5 5 40 5 5 59
100 76 5 2 4 8 0 0 0 0 1 1 0 0 4 8 11 8 15 1 9 3 0 5 0 0 4 7 1 4 0 0 0 0 0 82 7 0 0 2 5 9 20
99 91 6 5 1 5 8 0 0 0 0 0 0 0 0 3 1 4 7 1 0 15 0 0 2 8 2 0 0 0 0 0 0 0 2 92 66 5 3 0 5 31 4
87 100 73 14 5 2 4 2 7 9 2 0 0 0 0 8 11 4 0 0 0 0 0 0 0 4 0 0 0 0 0 0 0 0 9 9 97 99 91 11 16 0 0
35 28 100 100 87 5 0 0 0 5 5 20 38 24 2 3 0 2 3 0 0 0 0 0 0 0 0 4 0 1 5 5 0 6 22 1 58 26 76 100 80 39 4
58 97 97 100 100 100 40 4 0 2 6 8 6 86 100 100 100 46 5 5 3 1 1 1 2 2 0 2 99 79 5 8 36 12 20 34 0 45 5 30 16 5 7
54 49 77 95 100 100 100 100 99 47 52 55 47 79 33 17 5 5 4 5 5 28 24 5 6 5 3 2 2 99 100 47 8 27 38 13 0 3 60 14 17 91 22
42 41 100 38 9 100 100 100 100 99 99 91 38 93 83 5 5 3 2 0 3 5 5 5 5 13 6 5 94 9 82 100 99 39 99 68 61 4 5 72 61 67 98
41 58 98 73 56 100 100 100 100 100 100 100 100 100 98 22 41 5 5 5 5 5 5 1 0 2 24 49 24 100 41 76 100 100 94 72 74 63 25 32 5 9 0
35 95 55 99 100 100 100 100 100 100 100 100 100 100 100 100 90 95 95 96 6 5 5 5 15 5 5 5 9 5 82 67 11 88 100 100 91 25 6 14 5 5 3
86 72 99 99 100 100 100 100 100 72 100 100 100 100 100 100 100 99 76 87 13 5 23 5 59 97 65 87 6 6 7 99 100 100 64 98 100 89 11 5 9 7 6
100 100 100 98 100 100 100 100 100 100 100 100 100 100 100 100 100 100 97 90 66 50 74 8 10 93 95 95 95 69 89 97 100 100 100 86 100 100 100 93 83 30 5
100 100 100 100 100 100 100 100 100 100 100 100 100 100 96 100 93 46 16 5 1 0 0 26 99 100 98 100 100 100 100 100 100 100 100 100 100 91 100 100 100 100 100
100 100 100 100 100 100 100 100 100 100 100 100 100 100 96 14 11 15 9 4 0 0 0 2 100 100 100 100 100 100 100 100 100 100 100 100 100 100 100 100 100 100 100
100 100 100 100 100 100 100 100 100 100 100 100 100 100 95 24 8 14 5 0 0 1 7 67 97 100 100 100 100 100 100 100 100 100 100 100 100 100 100 100 100 100 100
100 100 100 100 100 100 100 100 100 100 100 100 100 86 26 33 6 5 5 0 0 5 46 94 100 100 100 100 100 100 100 100 100 100 100 100 100 100 100 100 100 100 100
100 100 100 100 100 100 100 100 100 100 100 100 63 52 96 65 12 38 48 5 5 6 5 5 5 96 100 100 100 100 100 100 100 100 100 100 100 100 100 100 100 100 100
100 100 100 100 100 100 100 100 100 100 100 100 67 24 5 8 19 5 5 9 63 70 100 100 74 10 100 100 100 100 100 100 100 100 100 100 100 100 100 100 100 100 100
100 100 100 100 100 100 100 100 100 100 100 96 62 99 100 92 94 98 60 75 82 96 100 100 92 98 47 51 100 100 100 100 100 100 100 100 100 100 100 100 100 100 100
98 98 100 100 100 100 100 100 100 100 100 100 92 36 76 100 100 100 94 96 80 27 16 0 20 49 100 100 100 78 99 100 100 100 100 100 100 100 100 100 100 100 100
76 100 100 76 100 100 100 100 100 100 100 100 100 100 100 100 25 56 80 77 38 5 5 3 26 39 100 91 5 54 8 22 93 100 100 100 100 100 100 100 100 100 100
15 10 83 100 100 100 100 97 98 100 100 100 100 100 100 100 100 100 99 82 53 25 15 18 3 27 95 100 43 18 4 7 4 5 6 34 96 100 61 68 80 94 100
1 99 92 43 83 100 100 94 100 82 81 88 100 100 100 98 88 100 100 99 79 62 53 24 45 98 100 100 100 94 80 7 30 3 22 1 1 11 74 100 80 90 36
5 5 87 100 100 100 100 100 100 100 32 18 34 88 100 100 100 100 100 100 100 100 49 60 100 91 100 100 26 18 15 74 44 10 5 1 2 0 1 76 100 98 24
4 5 15 45 97 100 100 88 99 100 100 100 95 85 96 34 63 99 100 100 100 100 100 87 82 100 38 91 89 47 10 37 36 9 17 6 11 9 1 0 45 94 76